Year,Month,Day,Hour,Minute,Value (Times are PST for temperature in C)
2009,09,21,00,00,9.00
2009,09,21,00,01,9.00
2009,09,21,00,02,9.00
2009,09,21,00,03,9.00
2009,09,21,00,04,9.00
2009,09,21,00,05,9.00
2009,09,21,00,06,9.00
2009,09,21,00,07,9.00
2009,09,21,00,08,9.00
2009,09,21,00,09,9.00
2009,09,21,00,10,9.00
2009,09,21,00,11,9.00
2009,09,21,00,12,9.00
2009,09,21,00,13,9.10
2009,09,21,00,14,9.10
2009,09,21,00,15,9.10
2009,09,21,00,16,9.10
2009,09,21,00,17,9.10
2009,09,21,00,18,9.10
2009,09,21,00,19,9.10
2009,09,21,00,20,9.10
2009,09,21,00,21,9.10
2009,09,21,00,22,9.10
2009,09,21,00,23,9.10
2009,09,21,00,24,9.10
2009,09,21,00,25,9.10
2009,09,21,00,26,9.10
2009,09,21,00,27,9.20
2009,09,21,00,28,9.20
2009,09,21,00,29,9.20
2009,09,21,00,30,9.30
2009,09,21,00,31,9.30
2009,09,21,00,32,9.30
2009,09,21,00,33,9.30
2009,09,21,00,34,9.30
2009,09,21,00,35,9.30
2009,09,21,00,36,9.30
2009,09,21,00,37,9.30
2009,09,21,00,38,9.30
2009,09,21,00,39,9.30
2009,09,21,00,40,9.20
2009,09,21,00,41,9.20
2009,09,21,00,42,9.20
2009,09,21,00,43,9.30
2009,09,21,00,44,9.30
2009,09,21,00,45,9.30
2009,09,21,00,46,9.30
2009,09,21,00,47,9.30
2009,09,21,00,48,9.30
2009,09,21,00,49,9.30
2009,09,21,00,50,9.30
2009,09,21,00,51,9.30
2009,09,21,00,52,9.30
2009,09,21,00,53,9.30
2009,09,21,00,54,9.20
2009,09,21,00,55,9.20
2009,09,21,00,56,9.20
2009,09,21,00,57,9.20
2009,09,21,00,58,9.20
2009,09,21,00,59,9.20
2009,09,21,01,00,9.30
2009,09,21,01,01,9.30
2009,09,21,01,02,9.30
2009,09,21,01,03,9.40
2009,09,21,01,04,9.50
2009,09,21,01,05,9.50
2009,09,21,01,06,9.60
2009,09,21,01,07,9.60
2009,09,21,01,08,9.70
2009,09,21,01,09,9.70
2009,09,21,01,10,9.80
2009,09,21,01,11,9.80
2009,09,21,01,12,9.80
2009,09,21,01,13,9.80
2009,09,21,01,14,9.80
2009,09,21,01,15,9.80
2009,09,21,01,16,9.80
2009,09,21,01,17,9.80
2009,09,21,01,18,9.80
2009,09,21,01,19,9.80
2009,09,21,01,20,9.80
2009,09,21,01,21,9.70
2009,09,21,01,22,9.70
2009,09,21,01,23,9.70
2009,09,21,01,24,9.70
2009,09,21,01,25,9.70
2009,09,21,01,26,9.70
2009,09,21,01,27,9.70
2009,09,21,01,28,9.70
2009,09,21,01,29,9.60
2009,09,21,01,30,9.60
2009,09,21,01,31,9.60
2009,09,21,01,32,9.60
2009,09,21,01,33,9.60
2009,09,21,01,34,9.60
2009,09,21,01,35,9.60
2009,09,21,01,36,9.60
2009,09,21,01,37,9.60
2009,09,21,01,38,9.60
2009,09,21,01,39,9.50
2009,09,21,01,40,9.50
2009,09,21,01,41,9.50
2009,09,21,01,42,9.40
2009,09,21,01,43,9.40
2009,09,21,01,44,9.40
2009,09,21,01,45,9.40
2009,09,21,01,46,9.40
2009,09,21,01,47,9.40
2009,09,21,01,48,9.40
2009,09,21,01,49,9.40
2009,09,21,01,50,9.40
2009,09,21,01,51,9.40
2009,09,21,01,52,9.40
2009,09,21,01,53,9.30
2009,09,21,01,54,9.30
2009,09,21,01,55,9.30
2009,09,21,01,56,9.30
2009,09,21,01,57,9.30
2009,09,21,01,58,9.30
2009,09,21,01,59,9.30
2009,09,21,02,00,9.30
2009,09,21,02,01,9.30
2009,09,21,02,02,9.30
2009,09,21,02,03,9.30
2009,09,21,02,04,9.30
2009,09,21,02,05,9.40
2009,09,21,02,06,9.40
2009,09,21,02,07,9.50
2009,09,21,02,08,9.60
2009,09,21,02,09,9.60
2009,09,21,02,10,9.70
2009,09,21,02,11,9.70
2009,09,21,02,12,9.70
2009,09,21,02,13,9.70
2009,09,21,02,14,9.70
2009,09,21,02,15,9.80
2009,09,21,02,16,9.80
2009,09,21,02,17,9.80
2009,09,21,02,18,9.80
2009,09,21,02,19,9.80
2009,09,21,02,20,9.80
2009,09,21,02,21,9.80
2009,09,21,02,22,9.90
2009,09,21,02,23,9.90
2009,09,21,02,24,9.90
2009,09,21,02,25,9.90
2009,09,21,02,26,10.00
2009,09,21,02,27,10.00
2009,09,21,02,28,10.00
2009,09,21,02,29,10.10
2009,09,21,02,30,10.10
2009,09,21,02,31,10.00
2009,09,21,02,32,10.00
2009,09,21,02,33,10.00
2009,09,21,02,34,10.00
2009,09,21,02,35,9.90
2009,09,21,02,36,9.90
2009,09,21,02,37,9.90
2009,09,21,02,38,9.90
2009,09,21,02,39,9.90
2009,09,21,02,40,9.80
2009,09,21,02,41,9.80
2009,09,21,02,42,9.80
2009,09,21,02,43,9.80
2009,09,21,02,44,9.90
2009,09,21,02,45,9.80
2009,09,21,02,46,9.80
2009,09,21,02,47,9.80
2009,09,21,02,48,9.80
2009,09,21,02,49,9.80
2009,09,21,02,50,9.80
2009,09,21,02,51,9.80
2009,09,21,02,52,9.80
2009,09,21,02,53,9.80
2009,09,21,02,54,9.80
2009,09,21,02,55,9.80
2009,09,21,02,56,9.80
2009,09,21,02,57,9.80
2009,09,21,02,58,9.90
2009,09,21,02,59,9.90
2009,09,21,03,00,9.90
2009,09,21,03,01,9.90
2009,09,21,03,02,9.90
2009,09,21,03,03,9.90
2009,09,21,03,04,9.90
2009,09,21,03,05,9.90
2009,09,21,03,06,9.90
2009,09,21,03,07,9.90
2009,09,21,03,08,9.90
2009,09,21,03,09,9.90
2009,09,21,03,10,9.90
2009,09,21,03,11,9.90
2009,09,21,03,12,9.90
2009,09,21,03,13,9.90
2009,09,21,03,14,9.90
2009,09,21,03,15,9.90
2009,09,21,03,16,9.90
2009,09,21,03,17,9.90
2009,09,21,03,18,9.90
2009,09,21,03,19,9.90
2009,09,21,03,20,9.90
2009,09,21,03,21,9.90
2009,09,21,03,22,9.90
2009,09,21,03,23,9.90
2009,09,21,03,24,9.90
2009,09,21,03,25,9.90
2009,09,21,03,26,9.90
2009,09,21,03,27,9.90
2009,09,21,03,28,9.90
2009,09,21,03,29,9.90
2009,09,21,03,30,9.90
2009,09,21,03,31,9.80
2009,09,21,03,34,9.80
2009,09,21,03,35,9.80
2009,09,21,03,36,9.80
2009,09,21,03,37,9.80
2009,09,21,03,38,9.80
2009,09,21,03,39,9.80
2009,09,21,03,40,9.80
2009,09,21,03,41,9.80
2009,09,21,03,42,9.80
2009,09,21,03,43,9.80
2009,09,21,03,44,9.80
2009,09,21,03,45,9.80
2009,09,21,03,46,9.80
2009,09,21,03,47,9.80
2009,09,21,03,48,9.80
2009,09,21,03,49,9.80
2009,09,21,03,50,9.80
2009,09,21,03,51,9.80
2009,09,21,03,52,9.80
2009,09,21,03,53,9.80
2009,09,21,03,54,9.80
2009,09,21,03,55,9.70
2009,09,21,03,56,9.70
2009,09,21,03,57,9.70
2009,09,21,03,58,9.70
2009,09,21,03,59,9.70
2009,09,21,04,00,9.70
2009,09,21,04,01,9.70
2009,09,21,04,02,9.70
2009,09,21,04,03,9.60
2009,09,21,04,04,9.60
2009,09,21,04,05,9.60
2009,09,21,04,06,9.60
2009,09,21,04,07,9.60
2009,09,21,04,08,9.60
2009,09,21,04,09,9.60
2009,09,21,04,10,9.70
2009,09,21,04,11,9.70
2009,09,21,04,12,9.70
2009,09,21,04,13,9.70
2009,09,21,04,14,9.70
2009,09,21,04,15,9.70
2009,09,21,04,16,9.70
2009,09,21,04,17,9.70
2009,09,21,04,18,9.70
2009,09,21,04,19,9.70
2009,09,21,04,20,9.70
2009,09,21,04,21,9.70
2009,09,21,04,22,9.70
2009,09,21,04,23,9.70
2009,09,21,04,24,9.80
2009,09,21,04,25,9.70
2009,09,21,04,26,9.70
2009,09,21,04,27,9.70
2009,09,21,04,28,9.70
2009,09,21,04,29,9.70
2009,09,21,04,30,9.70
2009,09,21,04,31,9.70
2009,09,21,04,32,9.80
2009,09,21,04,33,9.80
2009,09,21,04,34,9.80
2009,09,21,04,35,9.80
2009,09,21,04,36,9.80
2009,09,21,04,37,9.80
2009,09,21,04,38,9.80
2009,09,21,04,39,9.80
2009,09,21,04,40,9.80
2009,09,21,04,41,9.80
2009,09,21,04,42,9.80
2009,09,21,04,43,9.70
2009,09,21,04,44,9.70
2009,09,21,04,45,9.70
2009,09,21,04,46,9.70
2009,09,21,04,47,9.70
2009,09,21,04,48,9.70
2009,09,21,04,49,9.70
2009,09,21,04,50,9.70
2009,09,21,04,51,9.70
2009,09,21,04,52,9.70
2009,09,21,04,53,9.70
2009,09,21,04,54,9.70
2009,09,21,04,55,9.70
2009,09,21,04,56,9.70
2009,09,21,04,57,9.70
2009,09,21,04,58,9.70
2009,09,21,04,59,9.70
2009,09,21,05,00,9.70
2009,09,21,05,01,9.70
2009,09,21,05,02,9.60
2009,09,21,05,03,9.60
2009,09,21,05,04,9.60
2009,09,21,05,05,9.60
2009,09,21,05,06,9.60
2009,09,21,05,07,9.60
2009,09,21,05,08,9.60
2009,09,21,05,09,9.60
2009,09,21,05,10,9.60
2009,09,21,05,11,9.60
2009,09,21,05,12,9.50
2009,09,21,05,13,9.50
2009,09,21,05,14,9.50
2009,09,21,05,15,9.40
2009,09,21,05,16,9.40
2009,09,21,05,17,9.40
2009,09,21,05,18,9.40
2009,09,21,05,19,9.40
2009,09,21,05,20,9.40
2009,09,21,05,21,9.40
2009,09,21,05,22,9.40
2009,09,21,05,23,9.40
2009,09,21,05,24,9.40
2009,09,21,05,25,9.40
2009,09,21,05,26,9.40
2009,09,21,05,27,9.30
2009,09,21,05,28,9.30
2009,09,21,05,29,9.20
2009,09,21,05,30,9.20
2009,09,21,05,31,9.20
2009,09,21,05,32,9.20
2009,09,21,05,33,9.20
2009,09,21,05,34,9.20
2009,09,21,05,35,9.20
2009,09,21,05,36,9.20
2009,09,21,05,37,9.10
2009,09,21,05,38,9.10
2009,09,21,05,39,9.10
2009,09,21,05,40,9.10
2009,09,21,05,41,9.10
2009,09,21,05,42,9.10
2009,09,21,05,43,9.10
2009,09,21,05,44,9.10
2009,09,21,05,45,9.10
2009,09,21,05,46,9.10
2009,09,21,05,47,9.20
2009,09,21,05,48,9.20
2009,09,21,05,49,9.20
2009,09,21,05,50,9.20
2009,09,21,05,51,9.10
2009,09,21,05,52,9.10
2009,09,21,05,53,9.10
2009,09,21,05,54,9.10
2009,09,21,05,55,9.10
2009,09,21,05,56,9.20
2009,09,21,05,57,9.20
2009,09,21,05,58,9.20
2009,09,21,05,59,9.30
2009,09,21,06,00,9.30
2009,09,21,06,01,9.30
2009,09,21,06,02,9.30
2009,09,21,06,03,9.40
2009,09,21,06,04,9.40
2009,09,21,06,05,9.40
2009,09,21,06,06,9.40
2009,09,21,06,07,9.40
2009,09,21,06,08,9.40
2009,09,21,06,09,9.40
2009,09,21,06,10,9.40
2009,09,21,06,11,9.40
2009,09,21,06,12,9.40
2009,09,21,06,13,9.40
2009,09,21,06,14,9.40
2009,09,21,06,15,9.50
2009,09,21,06,16,9.50
2009,09,21,06,17,9.50
2009,09,21,06,18,9.50
2009,09,21,06,19,9.60
2009,09,21,06,20,9.60
2009,09,21,06,21,9.60
2009,09,21,06,22,9.60
2009,09,21,06,23,9.60
2009,09,21,06,24,9.60
2009,09,21,06,25,9.60
2009,09,21,06,26,9.60
2009,09,21,06,27,9.60
2009,09,21,06,28,9.60
2009,09,21,06,29,9.60
2009,09,21,06,30,9.60
2009,09,21,06,31,9.60
2009,09,21,06,32,9.60
2009,09,21,06,33,9.60
2009,09,21,06,34,9.60
2009,09,21,06,35,9.60
2009,09,21,06,36,9.60
2009,09,21,06,37,9.60
2009,09,21,06,38,9.60
2009,09,21,06,39,9.60
2009,09,21,06,40,9.60
2009,09,21,06,41,9.60
2009,09,21,06,42,9.60
2009,09,21,06,43,9.60
2009,09,21,06,44,9.60
2009,09,21,06,45,9.60
2009,09,21,06,46,9.60
2009,09,21,06,47,9.50
2009,09,21,06,48,9.50
2009,09,21,06,49,9.50
2009,09,21,06,50,9.50
2009,09,21,06,51,9.50
2009,09,21,06,52,9.50
2009,09,21,06,53,9.50
2009,09,21,06,54,9.50
2009,09,21,06,55,9.50
2009,09,21,06,56,9.50
2009,09,21,06,57,9.50
2009,09,21,06,58,9.50
2009,09,21,06,59,9.50
2009,09,21,07,00,9.40
2009,09,21,07,01,9.40
2009,09,21,07,02,9.40
2009,09,21,07,03,9.40
2009,09,21,07,04,9.30
2009,09,21,07,05,9.30
2009,09,21,07,06,9.30
2009,09,21,07,07,9.30
2009,09,21,07,08,9.30
2009,09,21,07,09,9.30
2009,09,21,07,10,9.30
2009,09,21,07,11,9.30
2009,09,21,07,12,9.30
2009,09,21,07,13,9.30
2009,09,21,07,14,9.30
2009,09,21,07,15,9.30
2009,09,21,07,16,9.30
2009,09,21,07,17,9.30
2009,09,21,07,18,9.30
2009,09,21,07,19,9.30
2009,09,21,07,20,9.30
2009,09,21,07,21,9.30
2009,09,21,07,22,9.40
2009,09,21,07,23,9.40
2009,09,21,07,24,9.40
2009,09,21,07,25,9.40
2009,09,21,07,26,9.40
2009,09,21,07,27,9.50
2009,09,21,07,28,9.50
2009,09,21,07,29,9.50
2009,09,21,07,30,9.60
2009,09,21,07,31,9.60
2009,09,21,07,32,9.60
2009,09,21,07,33,9.60
2009,09,21,07,34,9.60
2009,09,21,07,35,9.60
2009,09,21,07,36,9.60
2009,09,21,07,37,9.60
2009,09,21,07,38,9.60
2009,09,21,07,39,9.60
2009,09,21,07,40,9.60
2009,09,21,07,41,9.60
2009,09,21,07,42,9.60
2009,09,21,07,43,9.70
2009,09,21,07,44,9.70
2009,09,21,07,45,9.70
2009,09,21,07,46,9.80
2009,09,21,07,47,9.80
2009,09,21,07,48,9.80
2009,09,21,07,49,9.80
2009,09,21,07,50,9.90
2009,09,21,07,51,9.90
2009,09,21,07,52,10.00
2009,09,21,07,53,10.00
2009,09,21,07,54,10.10
2009,09,21,07,55,10.10
2009,09,21,07,56,10.10
2009,09,21,07,57,10.10
2009,09,21,07,58,10.20
2009,09,21,07,59,10.20
2009,09,21,08,00,10.30
2009,09,21,08,01,10.30
2009,09,21,08,02,10.30
2009,09,21,08,03,10.40
2009,09,21,08,04,10.40
2009,09,21,08,05,10.40
2009,09,21,08,06,10.50
2009,09,21,08,07,10.50
2009,09,21,08,08,10.60
2009,09,21,08,09,10.60
2009,09,21,08,10,10.60
2009,09,21,08,11,10.70
2009,09,21,08,12,10.70
2009,09,21,08,13,10.80
2009,09,21,08,14,10.80
2009,09,21,08,15,10.80
2009,09,21,08,16,10.80
2009,09,21,08,17,10.90
2009,09,21,08,18,10.90
2009,09,21,08,19,10.90
2009,09,21,08,20,11.00
2009,09,21,08,21,11.00
2009,09,21,08,22,11.10
2009,09,21,08,23,11.10
2009,09,21,08,24,11.10
2009,09,21,08,25,11.20
2009,09,21,08,26,11.20
2009,09,21,08,27,11.20
2009,09,21,08,28,11.30
2009,09,21,08,29,11.30
2009,09,21,08,30,11.40
2009,09,21,08,31,11.40
2009,09,21,08,32,11.40
2009,09,21,08,33,11.50
2009,09,21,08,34,11.50
2009,09,21,08,35,11.60
2009,09,21,08,36,11.60
2009,09,21,08,37,11.60
2009,09,21,08,38,11.60
2009,09,21,08,39,11.70
2009,09,21,08,40,11.70
2009,09,21,08,41,11.70
2009,09,21,08,42,11.70
2009,09,21,08,43,11.70
2009,09,21,08,44,11.60
2009,09,21,08,45,11.60
2009,09,21,08,46,11.60
2009,09,21,08,47,11.60
2009,09,21,08,48,11.60
2009,09,21,08,49,11.50
2009,09,21,08,50,11.50
2009,09,21,08,51,11.60
2009,09,21,08,52,11.60
2009,09,21,08,53,11.60
2009,09,21,08,54,11.60
2009,09,21,08,55,11.70
2009,09,21,08,56,11.70
2009,09,21,08,57,11.70
2009,09,21,08,58,11.70
2009,09,21,08,59,11.70
2009,09,21,09,00,11.70
2009,09,21,09,01,11.80
2009,09,21,09,02,11.80
2009,09,21,09,03,11.80
2009,09,21,09,04,11.80
2009,09,21,09,05,11.90
2009,09,21,09,06,11.90
2009,09,21,09,07,11.90
2009,09,21,09,08,11.90
2009,09,21,09,09,12.00
2009,09,21,09,10,12.00
2009,09,21,09,11,12.10
2009,09,21,09,12,12.10
2009,09,21,09,13,12.10
2009,09,21,09,14,12.20
2009,09,21,09,15,12.30
2009,09,21,09,16,12.40
2009,09,21,09,17,12.40
2009,09,21,09,18,12.50
2009,09,21,09,19,12.60
2009,09,21,09,20,12.70
2009,09,21,09,21,12.70
2009,09,21,09,22,12.80
2009,09,21,09,23,12.90
2009,09,21,09,24,12.90
2009,09,21,09,25,13.00
2009,09,21,09,26,13.10
2009,09,21,09,27,13.20
2009,09,21,09,28,13.30
2009,09,21,09,29,13.30
2009,09,21,09,30,13.40
2009,09,21,09,31,13.50
2009,09,21,09,32,13.60
2009,09,21,09,33,13.60
2009,09,21,09,34,13.70
2009,09,21,09,35,13.80
2009,09,21,09,36,13.90
2009,09,21,09,37,14.00
2009,09,21,09,38,14.10
2009,09,21,09,39,14.10
2009,09,21,09,40,14.20
2009,09,21,09,41,14.10
2009,09,21,09,42,14.10
2009,09,21,09,43,14.10
2009,09,21,09,44,14.00
2009,09,21,09,45,14.00
2009,09,21,09,46,14.10
2009,09,21,09,47,14.10
2009,09,21,09,48,14.10
2009,09,21,09,49,14.10
2009,09,21,09,50,14.20
2009,09,21,09,51,14.20
2009,09,21,09,52,14.20
2009,09,21,09,53,14.20
2009,09,21,09,54,14.30
2009,09,21,09,55,14.30
2009,09,21,09,56,14.40
2009,09,21,09,57,14.50
2009,09,21,09,58,14.50
2009,09,21,09,59,14.60
2009,09,21,10,00,14.60
2009,09,21,10,01,14.70
2009,09,21,10,02,14.80
2009,09,21,10,03,15.00
2009,09,21,10,04,15.00
2009,09,21,10,05,15.00
2009,09,21,10,06,15.10
2009,09,21,10,07,15.20
2009,09,21,10,08,15.20
2009,09,21,10,09,15.20
2009,09,21,10,10,15.10
2009,09,21,10,11,15.10
2009,09,21,10,12,15.10
2009,09,21,10,13,15.00
2009,09,21,10,14,15.00
2009,09,21,10,15,15.00
2009,09,21,10,16,15.00
2009,09,21,10,17,15.00
2009,09,21,10,18,15.00
2009,09,21,10,19,15.00
2009,09,21,10,20,15.00
2009,09,21,10,21,15.00
2009,09,21,10,22,15.00
2009,09,21,10,23,15.00
2009,09,21,10,24,15.00
2009,09,21,10,25,15.00
2009,09,21,10,26,15.00
2009,09,21,10,27,15.00
2009,09,21,10,28,15.00
2009,09,21,10,29,15.00
2009,09,21,10,30,15.10
2009,09,21,10,31,15.10
2009,09,21,10,32,15.00
2009,09,21,10,33,15.00
2009,09,21,10,34,15.00
2009,09,21,10,35,15.00
2009,09,21,10,36,15.00
2009,09,21,10,37,15.00
2009,09,21,10,38,15.00
2009,09,21,10,39,15.00
2009,09,21,10,40,15.00
2009,09,21,10,41,15.00
2009,09,21,10,42,15.00
2009,09,21,10,43,15.10
2009,09,21,10,44,15.10
2009,09,21,10,45,15.20
2009,09,21,10,46,15.10
2009,09,21,10,47,15.10
2009,09,21,10,48,15.20
2009,09,21,10,49,15.20
2009,09,21,10,50,15.20
2009,09,21,10,51,15.20
2009,09,21,10,52,15.20
2009,09,21,10,53,15.20
2009,09,21,10,54,15.20
2009,09,21,10,55,15.10
2009,09,21,10,56,15.10
2009,09,21,10,57,15.00
2009,09,21,10,58,15.00
2009,09,21,10,59,15.00
2009,09,21,11,00,15.00
2009,09,21,11,01,15.00
2009,09,21,11,02,15.10
2009,09,21,11,03,15.20
2009,09,21,11,04,15.20
2009,09,21,11,05,15.30
2009,09,21,11,06,15.40
2009,09,21,11,07,15.50
2009,09,21,11,08,15.60
2009,09,21,11,09,15.60
2009,09,21,11,10,15.70
2009,09,21,11,11,15.80
2009,09,21,11,12,16.00
2009,09,21,11,13,16.10
2009,09,21,11,14,16.20
2009,09,21,11,15,16.20
2009,09,21,11,16,16.30
2009,09,21,11,17,16.40
2009,09,21,11,18,16.40
2009,09,21,11,19,16.50
2009,09,21,11,20,16.50
2009,09,21,11,21,16.60
2009,09,21,11,22,16.50
2009,09,21,11,23,16.50
2009,09,21,11,24,16.50
2009,09,21,11,25,16.60
2009,09,21,11,26,16.60
2009,09,21,11,27,16.70
2009,09,21,11,28,16.80
2009,09,21,11,29,16.90
2009,09,21,11,30,16.90
2009,09,21,11,31,16.90
2009,09,21,11,32,16.90
2009,09,21,11,33,16.90
2009,09,21,11,34,17.00
2009,09,21,11,35,17.00
2009,09,21,11,36,17.10
2009,09,21,11,37,17.10
2009,09,21,11,38,17.10
2009,09,21,11,39,17.10
2009,09,21,11,40,17.10
2009,09,21,11,41,17.10
2009,09,21,11,42,17.20
2009,09,21,11,43,17.30
2009,09,21,11,44,17.40
2009,09,21,11,45,17.40
2009,09,21,11,46,17.50
2009,09,21,11,47,17.60
2009,09,21,11,48,17.60
2009,09,21,11,49,17.60
2009,09,21,11,50,17.60
2009,09,21,11,51,17.60
2009,09,21,11,52,17.60
2009,09,21,11,53,17.60
2009,09,21,11,54,17.60
2009,09,21,11,55,17.60
2009,09,21,11,56,17.60
2009,09,21,11,57,17.50
2009,09,21,11,58,17.50
2009,09,21,11,59,17.50
2009,09,21,12,00,17.40
2009,09,21,12,01,17.40
2009,09,21,12,02,17.40
2009,09,21,12,03,17.40
2009,09,21,12,04,17.40
2009,09,21,12,05,17.40
2009,09,21,12,06,17.40
2009,09,21,12,07,17.40
2009,09,21,12,08,17.30
2009,09,21,12,09,17.20
2009,09,21,12,10,17.20
2009,09,21,12,11,17.30
2009,09,21,12,12,17.30
2009,09,21,12,13,17.30
2009,09,21,12,14,17.40
2009,09,21,12,15,17.50
2009,09,21,12,16,17.50
2009,09,21,12,17,17.60
2009,09,21,12,18,17.60
2009,09,21,12,19,17.60
2009,09,21,12,20,17.60
2009,09,21,12,21,17.50
2009,09,21,12,22,17.40
2009,09,21,12,23,17.40
2009,09,21,12,24,17.30
2009,09,21,12,25,17.30
2009,09,21,12,26,17.30
2009,09,21,12,27,17.30
2009,09,21,12,28,17.30
2009,09,21,12,29,17.40
2009,09,21,12,30,17.40
2009,09,21,12,31,17.50
2009,09,21,12,32,17.50
2009,09,21,12,33,17.60
2009,09,21,12,34,17.60
2009,09,21,12,35,17.70
2009,09,21,12,36,17.80
2009,09,21,12,37,17.90
2009,09,21,12,38,17.90
2009,09,21,12,39,18.00
2009,09,21,12,40,18.10
2009,09,21,12,41,18.20
2009,09,21,12,42,18.30
2009,09,21,12,43,18.30
2009,09,21,12,44,18.30
2009,09,21,12,45,18.20
2009,09,21,12,46,18.20
2009,09,21,12,47,18.20
2009,09,21,12,48,18.20
2009,09,21,12,49,18.10
2009,09,21,12,50,18.10
2009,09,21,12,51,18.00
2009,09,21,12,52,17.90
2009,09,21,12,53,17.80
2009,09,21,12,54,17.80
2009,09,21,12,55,17.80
2009,09,21,12,56,17.80
2009,09,21,12,57,17.80
2009,09,21,12,58,17.80
2009,09,21,12,59,17.80
2009,09,21,13,00,17.80
2009,09,21,13,01,17.90
2009,09,21,13,02,17.90
2009,09,21,13,03,18.00
2009,09,21,13,04,18.10
2009,09,21,13,05,18.20
2009,09,21,13,06,18.20
2009,09,21,13,07,18.30
2009,09,21,13,08,18.30
2009,09,21,13,09,18.30
2009,09,21,13,10,18.30
2009,09,21,13,11,18.40
2009,09,21,13,12,18.40
2009,09,21,13,13,18.40
2009,09,21,13,14,18.50
2009,09,21,13,15,18.60
2009,09,21,13,16,18.70
2009,09,21,13,17,18.70
2009,09,21,13,18,18.80
2009,09,21,13,19,18.80
2009,09,21,13,20,18.90
2009,09,21,13,21,19.00
2009,09,21,13,22,19.10
2009,09,21,13,23,19.30
2009,09,21,13,24,19.40
2009,09,21,13,25,19.50
2009,09,21,13,26,19.60
2009,09,21,13,27,19.70
2009,09,21,13,28,19.80
2009,09,21,13,29,19.80
2009,09,21,13,30,19.90
2009,09,21,13,31,19.90
2009,09,21,13,32,19.90
2009,09,21,13,33,20.00
2009,09,21,13,34,20.00
2009,09,21,13,35,20.10
2009,09,21,13,36,20.10
2009,09,21,13,37,20.10
2009,09,21,13,38,20.10
2009,09,21,13,39,20.10
2009,09,21,13,40,20.10
2009,09,21,13,41,20.10
2009,09,21,13,42,20.10
2009,09,21,13,43,20.10
2009,09,21,13,44,20.10
2009,09,21,13,45,20.10
2009,09,21,13,46,20.00
2009,09,21,13,47,19.90
2009,09,21,13,48,19.90
2009,09,21,13,49,19.80
2009,09,21,13,50,19.80
2009,09,21,13,51,19.90
2009,09,21,13,52,19.90
2009,09,21,13,53,19.90
2009,09,21,13,54,19.90
2009,09,21,13,55,19.90
2009,09,21,13,56,19.90
2009,09,21,13,57,19.80
2009,09,21,13,58,19.80
2009,09,21,13,59,19.90
2009,09,21,14,00,20.00
2009,09,21,14,01,20.00
2009,09,21,14,02,20.10
2009,09,21,14,03,20.20
2009,09,21,14,04,20.20
2009,09,21,14,05,20.20
2009,09,21,14,06,20.20
2009,09,21,14,07,20.20
2009,09,21,14,08,20.20
2009,09,21,14,09,20.10
2009,09,21,14,10,20.10
2009,09,21,14,11,20.00
2009,09,21,14,12,20.00
2009,09,21,14,13,19.90
2009,09,21,14,14,19.90
2009,09,21,14,15,19.90
2009,09,21,14,16,19.90
2009,09,21,14,17,19.90
2009,09,21,14,18,19.90
2009,09,21,14,19,20.00
2009,09,21,14,20,20.00
2009,09,21,14,21,20.00
2009,09,21,14,22,20.00
2009,09,21,14,23,20.00
2009,09,21,14,24,19.90
2009,09,21,14,25,19.90
2009,09,21,14,26,19.90
2009,09,21,14,27,19.90
2009,09,21,14,28,19.90
2009,09,21,14,29,19.90
2009,09,21,14,30,19.90
2009,09,21,14,31,19.90
2009,09,21,14,32,19.90
2009,09,21,14,33,19.90
2009,09,21,14,34,19.80
2009,09,21,14,35,19.80
2009,09,21,14,36,19.70
2009,09,21,14,37,19.70
2009,09,21,14,38,19.60
2009,09,21,14,39,19.60
2009,09,21,14,40,19.50
2009,09,21,14,41,19.50
2009,09,21,14,42,19.40
2009,09,21,14,43,19.40
2009,09,21,14,44,19.50
2009,09,21,14,45,19.50
2009,09,21,14,46,19.60
2009,09,21,14,47,19.60
2009,09,21,14,48,19.70
2009,09,21,14,49,19.80
2009,09,21,14,50,19.90
2009,09,21,14,51,20.00
2009,09,21,14,52,20.00
2009,09,21,14,53,20.10
2009,09,21,14,54,20.10
2009,09,21,14,55,20.10
2009,09,21,14,56,20.20
2009,09,21,14,57,20.20
2009,09,21,14,58,20.30
2009,09,21,14,59,20.30
2009,09,21,15,00,20.30
2009,09,21,15,01,20.30
2009,09,21,15,02,20.30
2009,09,21,15,03,20.30
2009,09,21,15,04,20.30
2009,09,21,15,05,20.30
2009,09,21,15,06,20.30
2009,09,21,15,07,20.30
2009,09,21,15,08,20.30
2009,09,21,15,09,20.30
2009,09,21,15,10,20.30
2009,09,21,15,11,20.30
2009,09,21,15,12,20.30
2009,09,21,15,13,20.30
2009,09,21,15,14,20.40
2009,09,21,15,15,20.40
2009,09,21,15,16,20.40
2009,09,21,15,17,20.50
2009,09,21,15,18,20.60
2009,09,21,15,19,20.60
2009,09,21,15,20,20.60
2009,09,21,15,21,20.60
2009,09,21,15,22,20.70
2009,09,21,15,23,20.70
2009,09,21,15,24,20.60
2009,09,21,15,25,20.50
2009,09,21,15,26,20.40
2009,09,21,15,27,20.40
2009,09,21,15,28,20.30
2009,09,21,15,29,20.30
2009,09,21,15,30,20.30
2009,09,21,15,31,20.30
2009,09,21,15,32,20.30
2009,09,21,15,33,20.30
2009,09,21,15,34,20.30
2009,09,21,15,35,20.30
2009,09,21,15,36,20.30
2009,09,21,15,37,20.30
2009,09,21,15,38,20.30
2009,09,21,15,39,20.20
2009,09,21,15,40,20.20
2009,09,21,15,41,20.20
2009,09,21,15,42,20.20
2009,09,21,15,43,20.10
2009,09,21,15,44,20.10
2009,09,21,15,45,20.10
2009,09,21,15,46,20.10
2009,09,21,15,47,20.10
2009,09,21,15,48,20.10
2009,09,21,15,49,20.10
2009,09,21,15,50,20.10
2009,09,21,15,51,20.10
2009,09,21,15,52,20.00
2009,09,21,15,53,20.00
2009,09,21,15,54,20.00
2009,09,21,15,55,19.90
2009,09,21,15,56,19.90
2009,09,21,15,57,20.00
2009,09,21,15,58,20.00
2009,09,21,15,59,20.00
2009,09,21,16,00,20.10
2009,09,21,16,01,20.10
2009,09,21,16,02,20.20
2009,09,21,16,03,20.20
2009,09,21,16,04,20.10
2009,09,21,16,05,20.10
2009,09,21,16,06,20.10
2009,09,21,16,07,20.10
2009,09,21,16,08,20.10
2009,09,21,16,09,20.10
2009,09,21,16,10,20.00
2009,09,21,16,11,20.10
2009,09,21,16,12,20.10
2009,09,21,16,13,20.20
2009,09,21,16,14,20.20
2009,09,21,16,15,20.20
2009,09,21,16,16,20.20
2009,09,21,16,17,20.20
2009,09,21,16,18,20.10
2009,09,21,16,19,20.10
2009,09,21,16,20,20.10
2009,09,21,16,21,20.10
2009,09,21,16,22,20.10
2009,09,21,16,23,20.10
2009,09,21,16,24,20.10
2009,09,21,16,25,20.10
2009,09,21,16,26,20.20
2009,09,21,16,27,20.20
2009,09,21,16,28,20.20
2009,09,21,16,29,20.20
2009,09,21,16,30,20.20
2009,09,21,16,31,20.20
2009,09,21,16,32,20.20
2009,09,21,16,33,20.20
2009,09,21,16,34,20.20
2009,09,21,16,35,20.20
2009,09,21,16,36,20.10
2009,09,21,16,37,20.10
2009,09,21,16,38,20.10
2009,09,21,16,39,20.10
2009,09,21,16,40,20.00
2009,09,21,16,41,20.00
2009,09,21,16,42,20.00
2009,09,21,16,43,20.00
2009,09,21,16,44,20.00
2009,09,21,16,45,20.00
2009,09,21,16,46,20.00
2009,09,21,16,47,20.00
2009,09,21,16,48,20.10
2009,09,21,16,49,20.10
2009,09,21,16,50,20.20
2009,09,21,16,51,20.20
2009,09,21,16,52,20.20
2009,09,21,16,53,20.20
2009,09,21,16,54,20.20
2009,09,21,16,55,20.10
2009,09,21,16,56,20.10
2009,09,21,16,57,20.10
2009,09,21,16,58,20.10
2009,09,21,16,59,20.00
2009,09,21,17,00,20.00
2009,09,21,17,01,20.00
2009,09,21,17,02,20.00
2009,09,21,17,03,19.90
2009,09,21,17,04,19.90
2009,09,21,17,05,19.90
2009,09,21,17,06,19.90
2009,09,21,17,07,19.90
2009,09,21,17,08,19.90
2009,09,21,17,09,19.90
2009,09,21,17,10,20.00
2009,09,21,17,11,20.00
2009,09,21,17,12,20.00
2009,09,21,17,13,20.10
2009,09,21,17,14,20.10
2009,09,21,17,15,20.10
2009,09,21,17,16,20.20
2009,09,21,17,17,20.20
2009,09,21,17,18,20.20
2009,09,21,17,19,20.20
2009,09,21,17,20,20.20
2009,09,21,17,21,20.20
2009,09,21,17,22,20.20
2009,09,21,17,23,20.30
2009,09,21,17,24,20.30
2009,09,21,17,25,20.30
2009,09,21,17,26,20.30
2009,09,21,17,27,20.40
2009,09,21,17,28,20.40
2009,09,21,17,29,20.40
2009,09,21,17,30,20.40
2009,09,21,17,31,20.40
2009,09,21,17,32,20.40
2009,09,21,17,33,20.40
2009,09,21,17,34,20.50
2009,09,21,17,35,20.40
2009,09,21,17,36,20.40
2009,09,21,17,37,20.40
2009,09,21,17,38,20.40
2009,09,21,17,39,20.30
2009,09,21,17,40,20.30
2009,09,21,17,41,20.30